Weather History for Hugo, OK

Change the Weather History Date:

Friday, February 22, 2013

  Actual Average Record
Temperature  
Mean Temperature 37 °F -  
Max Temperature 47 °F 60 °F 77 °F (2014)
Min Temperature 27 °F 38 °F 27 °F (2013)
Degree Days  
Heating Degree Days 28    
Moisture  
Dew Point 23 °F    
Average Humidity 63    
Maximum Humidity 89    
Minimum Humidity 39    
Precipitation  
Precipitation 0.00 in - - ()
Sea Level Pressure  
Sea Level Pressure 30.05 in    
Wind  
Wind Speed 7 mph (NNW)    
Max Wind Speed 13 mph    
Max Gust Speed 17 mph    
Visibility 10 miles    
Events      
Averages and records for this station are not official NWS values.
T = Trace of Precipitation, MM = Missing Value Source: NWS Daily Summary

Daily Weather History Graph

Daily Weather History Graph

Search for Another Location

Airport:

Trip Planner

Search our weather history database for the weather conditions in past years. The results will help you decide how hot, cold, wet, or windy it might be!

Date:

Astronomy

Feb. 22, 2013 Rise Set
Actual Time 6:58 AM CST 6:12 PM CST
Civil Twilight 6:33 AM CST 6:38 PM CST
Nautical Twilight 6:04 AM CST 7:07 PM CST
Astronomical Twilight 5:35 AM CST 7:36 PM CST
Moon 3:30 PM CST (2/22) 4:39 AM CST (2/22)
Length of Visible Light 12h 04m
Length of Day
11h 13m
Waxing Gibbous, 90% of the Moon is Illuminated
Feb 22
Waxing Gibbous
Feb 25
Full
Mar 4
Last Quarter
Mar 11
New
Mar 19
First Quarter

Hourly Weather History & Observations

Time (CST) Temp. Windchill Dew Point Humidity Pressure Visibility Wind Dir Wind Speed Gust Speed Precip Events Conditions
12:15 AM 36.7 °F 32.0 °F 33.1 °F 87% 29.93 in 10.0 mi NW 5.8 mph - N/A   Clear
12:35 AM 36.5 °F 32.7 °F 32.5 °F 86% 29.92 in 10.0 mi NNW 4.6 mph - N/A   Clear
12:55 AM 35.2 °F 30.3 °F 32.0 °F 88% 29.93 in 10.0 mi NW 5.8 mph - N/A   Clear
1:15 AM 35.1 °F 32.2 °F 32.0 °F 89% 29.94 in 10.0 mi WNW 3.5 mph - N/A   Clear
1:35 AM 34.7 °F 29.6 °F 31.8 °F 89% 29.94 in 10.0 mi NW 5.8 mph - N/A   Clear
1:55 AM 35.4 °F 27.8 °F 32.0 °F 87% 29.95 in 10.0 mi NNW 10.4 mph - N/A   Mostly Cloudy
2:15 AM 34.7 °F 27.5 °F 31.5 °F 88% 29.94 in 10.0 mi NNW 9.2 mph - N/A   Mostly Cloudy
2:35 AM 34.3 °F 27.0 °F 31.1 °F 88% 29.95 in 10.0 mi NNW 9.2 mph - N/A   Scattered Clouds
2:55 AM 33.1 °F 24.9 °F 28.0 °F 82% 29.96 in 10.0 mi NNW 10.4 mph 16.1 mph N/A   Clear
3:15 AM 32.2 °F 24.4 °F 26.1 °F 78% 29.98 in 10.0 mi NNW 9.2 mph - N/A   Clear
3:35 AM 31.8 °F 23.9 °F 26.2 °F 80% 29.97 in 10.0 mi NNW 9.2 mph - N/A   Clear
3:55 AM 31.5 °F 24.9 °F 26.2 °F 81% 29.99 in 10.0 mi NNW 6.9 mph - N/A   Clear
4:15 AM 30.6 °F 24.7 °F 25.7 °F 82% 29.99 in 10.0 mi NW 5.8 mph - N/A   Clear
4:35 AM 30.0 °F 23.2 °F 25.0 °F 82% 30.00 in 10.0 mi NW 6.9 mph - N/A   Clear
4:55 AM 29.5 °F 22.5 °F 24.8 °F 83% 30.01 in 10.0 mi NW 6.9 mph - N/A   Clear
5:15 AM 29.3 °F 20.8 °F 24.6 °F 83% 30.01 in 10.0 mi NNW 9.2 mph - N/A   Scattered Clouds
5:35 AM 29.1 °F 20.0 °F 24.4 °F 83% 30.01 in 10.0 mi NNW 10.4 mph - N/A   Mostly Cloudy
5:55 AM 28.9 °F 21.1 °F 24.4 °F 83% 30.03 in 10.0 mi NNW 8.1 mph - N/A   Scattered Clouds
6:15 AM 28.4 °F 23.3 °F 23.5 °F 82% 30.06 in 10.0 mi NNW 4.6 mph - N/A   Clear
6:35 AM 28.4 °F - 21.2 °F 74% 30.09 in 10.0 mi Calm Calm - N/A   Clear
6:55 AM 28.0 °F 21.7 °F 21.6 °F 77% 30.09 in 10.0 mi NW 5.8 mph - N/A   Clear
7:15 AM 27.9 °F 21.5 °F 19.6 °F 71% 30.11 in 10.0 mi WNW 5.8 mph - N/A   Clear
7:35 AM 28.0 °F 22.8 °F 20.3 °F 73% 30.11 in 10.0 mi NNW 4.6 mph - N/A   Clear
7:55 AM 28.8 °F 21.7 °F 20.8 °F 72% 30.11 in 10.0 mi NNW 6.9 mph - N/A   Clear
8:15 AM 29.3 °F 22.3 °F 19.9 °F 68% 30.13 in 10.0 mi NW 6.9 mph - N/A   Clear
8:35 AM 30.0 °F 21.1 °F 18.7 °F 63% 30.12 in 10.0 mi NNW 10.4 mph - N/A   Clear
8:55 AM 30.2 °F 20.2 °F 18.9 °F 63% 30.12 in 10.0 mi NNW 12.7 mph - N/A   Clear
9:15 AM 31.5 °F 22.3 °F 19.2 °F 61% 30.12 in 10.0 mi North 11.5 mph - N/A   Clear
9:35 AM 32.0 °F 25.6 °F 19.2 °F 59% 30.14 in 10.0 mi NNW 6.9 mph - N/A   Clear
9:55 AM 32.7 °F 29.6 °F 19.2 °F 58% 30.13 in 10.0 mi WNW 3.5 mph - N/A   Clear
10:15 AM 32.9 °F 29.8 °F 18.7 °F 56% 30.13 in 10.0 mi North 3.5 mph - N/A   Clear
10:35 AM 32.9 °F 28.5 °F 18.5 °F 55% 30.13 in 10.0 mi North 4.6 mph - N/A   Clear
10:55 AM 34.0 °F 29.8 °F 18.9 °F 54% 30.13 in 10.0 mi North 4.6 mph - N/A   Clear
11:15 AM 34.5 °F 29.4 °F 18.7 °F 52% 30.14 in 10.0 mi NNW 5.8 mph - N/A   Clear
11:35 AM 36.7 °F 31.2 °F 20.1 °F 51% 30.13 in 10.0 mi NW 6.9 mph - N/A   Clear
11:55 AM 36.3 °F 31.6 °F 19.8 °F 51% 30.13 in 10.0 mi WNW 5.8 mph - N/A   Clear
12:15 PM 37.4 °F 33.8 °F 20.3 °F 50% 30.11 in 10.0 mi NNE 4.6 mph - N/A   Clear
12:35 PM 38.5 °F 33.4 °F 20.5 °F 48% 30.11 in 10.0 mi North 6.9 mph - N/A   Clear
1:15 PM 40.5 °F 35.1 °F 21.0 °F 46% 30.07 in 10.0 mi North 8.1 mph - N/A   Clear
1:35 PM 41.2 °F 35.0 °F 22.3 °F 47% 30.06 in 10.0 mi NNW 10.4 mph - N/A   Clear
1:55 PM 42.1 °F 36.6 °F 21.7 °F 44% 30.05 in 10.0 mi NNW 9.2 mph - N/A   Clear
2:15 PM 43.5 °F 39.4 °F 22.3 °F 43% 30.04 in 10.0 mi NNW 6.9 mph - N/A   Clear
2:35 PM 44.2 °F 41.0 °F 22.6 °F 42% 30.04 in 10.0 mi NNW 5.8 mph - N/A   Clear
2:55 PM 45.5 °F 40.8 °F 23.2 °F 41% 30.03 in 10.0 mi NNW 9.2 mph - N/A   Clear
3:15 PM 45.5 °F 43.2 °F 22.8 °F 41% 30.03 in 10.0 mi North 4.6 mph - N/A   Clear
3:35 PM 46.2 °F 42.7 °F 23.2 °F 40% 30.02 in 10.0 mi North 6.9 mph - N/A   Clear
3:55 PM 47.1 °F - 23.5 °F 40% 30.01 in 10.0 mi North 8.1 mph - N/A   Clear
4:15 PM 45.7 °F 41.5 °F 22.5 °F 40% 30.01 in 10.0 mi NNE 8.1 mph 17.3 mph N/A   Clear
4:35 PM 45.9 °F 41.7 °F 23.0 °F 41% 30.01 in 10.0 mi North 8.1 mph - N/A   Clear
4:55 PM 45.5 °F 41.8 °F 22.5 °F 40% 30.01 in 10.0 mi North 6.9 mph - N/A   Clear
5:15 PM 46.0 °F 41.4 °F 22.5 °F 39% 30.02 in 10.0 mi North 9.2 mph - N/A   Clear
5:35 PM 45.0 °F 40.6 °F 22.6 °F 41% 30.02 in 10.0 mi North 8.1 mph - N/A   Clear
5:55 PM 43.7 °F 38.6 °F 22.5 °F 43% 30.03 in 10.0 mi North 9.2 mph - N/A   Clear
6:15 PM 42.4 °F 38.1 °F 23.2 °F 47% 30.03 in 10.0 mi North 6.9 mph - N/A   Clear
6:35 PM 41.2 °F 36.6 °F 23.5 °F 50% 30.03 in 10.0 mi North 6.9 mph - N/A   Clear
6:55 PM 40.3 °F 37.1 °F 23.9 °F 52% 30.04 in 10.0 mi North 4.6 mph - N/A   Clear
7:15 PM 39.0 °F 35.7 °F 23.9 °F 55% 30.08 in 10.0 mi NNW 4.6 mph - N/A   Clear
7:35 PM 38.7 °F 33.6 °F 23.4 °F 54% 30.08 in 10.0 mi North 6.9 mph - N/A   Clear
7:55 PM 37.8 °F 33.3 °F 23.5 °F 57% 30.09 in 10.0 mi North 5.8 mph - N/A   Clear
8:15 PM 37.4 °F 32.8 °F 23.4 °F 57% 30.10 in 10.0 mi North 5.8 mph - N/A   Clear
8:35 PM 37.0 °F 32.4 °F 23.0 °F 57% 30.10 in 10.0 mi North 5.8 mph - N/A   Clear
8:55 PM 36.1 °F 31.4 °F 23.0 °F 59% 30.11 in 10.0 mi North 5.8 mph - N/A   Clear
9:15 PM 35.8 °F 31.9 °F 23.0 °F 60% 30.10 in 10.0 mi North 4.6 mph - N/A   Clear
9:35 PM 35.2 °F 32.4 °F 22.8 °F 61% 30.11 in 10.0 mi North 3.5 mph - N/A   Clear
9:55 PM 34.0 °F 29.8 °F 23.5 °F 66% 30.11 in 10.0 mi North 4.6 mph - N/A   Clear
10:15 PM 34.0 °F 28.8 °F 23.2 °F 65% 30.11 in 10.0 mi North 5.8 mph - N/A   Clear
10:35 PM 33.3 °F 27.9 °F 23.0 °F 66% 30.11 in 10.0 mi North 5.8 mph - N/A   Clear
10:55 PM 32.0 °F 27.5 °F 23.9 °F 72% 30.10 in 10.0 mi North 4.6 mph - N/A   Clear
11:15 PM 32.0 °F 27.5 °F 23.7 °F 71% 30.10 in 10.0 mi North 4.6 mph - N/A   Clear
11:55 PM 31.1 °F 27.7 °F 23.7 °F 74% 30.09 in 10.0 mi NNW 3.5 mph - N/A   Clear